This demonstration page uses our WeatherBlox Daily Observations layout. Learn more.

40.92945, -100.16068

Hourly Observations for December 7, 2015

Temp ( °F °C ) Dew Point ( °F °C ) Humidity (%) Winds ( mph kmh ) Pressure ( in mb ) Visibility ( mi km ) Precip ( " mm )
12:15 am 00:15 Clear 39 4 27 -3 61 61 SSW 8 13 30.21 1023 10 16.09344 0 0
12:35 am 00:35 Clear 39 4 27 -3 61 61 SSW 9 15 30.21 1023 10 16.09344 0 0
12:55 am 00:55 Clear 39 4 27 -3 61 61 SSW 8 13 30.21 1023 10 16.09344 0 0
1:15 am 01:15 Clear 37 3 27 -3 65 65 SW 8 13 30.21 1023 10 16.09344 0 0
1:35 am 01:35 Clear 37 3 27 -3 65 65 SSW 8 13 30.18 1022 10 16.09344 0 0
1:55 am 01:55 Clear 37 3 27 -3 65 65 SW 9 15 30.18 1022 10 16.09344 0 0
2:15 am 02:15 Clear 34 1 25 -4 70 70 SW 7 11 30.21 1023 10 16.09344 0 0
2:35 am 02:35 Clear 32 0 25 -4 75 75 SSE 8 13 30.21 1023 10 16.09344 0 0
2:55 am 02:55 Clear 32 0 27 -3 80 80 S 3 6 30.21 1023 10 16.09344 0 0
3:15 am 03:15 Clear 32 0 27 -3 80 80 Calm 30.21 1023 10 16.09344 0 0
3:35 am 03:35 Clear 32 0 27 -3 80 80 Calm 30.18 1022 10 16.09344 0 0
3:55 am 03:55 Clear 28 -2 25 -4 86 86 SSW 5 7 30.18 1022 10 16.09344 0 0
4:15 am 04:15 Clear 25 -4 21 -6 86 86 WSW 3 6 30.21 1023 10 16.09344 0 0
4:35 am 04:35 Clear 28 -2 25 -4 86 86 Calm 30.21 1023 10 16.09344 0 0
4:55 am 04:55 Clear 25 -4 21 -6 86 86 Calm 30.21 1023 10 16.09344 0 0
5:15 am 05:15 Clear 27 -3 25 -4 93 93 SW 3 6 30.18 1022 10 16.09344 0 0
5:35 am 05:35 Clear 27 -3 23 -5 86 86 SW 6 9 30.18 1022 10 16.09344 0 0
5:55 am 05:55 Clear 28 -2 25 -4 86 86 WSW 5 7 30.18 1022 10 16.09344 0 0
6:15 am 06:15 Clear 28 -2 25 -4 86 86 WSW 5 7 30.18 1022 10 16.09344 0 0
6:35 am 06:35 Clear 27 -3 23 -5 86 86 SW 6 9 30.18 1022 10 16.09344 0 0
6:55 am 06:55 Clear 27 -3 23 -5 86 86 WSW 3 6 30.18 1022 10 16.09344 0 0
7:15 am 07:15 Clear 27 -3 23 -5 86 86 WNW 5 7 30.18 1022 10 16.09344 0 0
7:35 am 07:35 Clear 25 -4 21 -6 86 86 NNW 8 13 30.18 1022 10 16.09344 0 0
7:55 am 07:55 Sunny 25 -4 21 -6 86 86 NNW 7 11 30.18 1022 10 16.09344 0 0
8:15 am 08:15 Sunny 27 -3 23 -5 86 86 NW 7 11 30.18 1022 10 16.09344 0 0
8:35 am 08:35 Sunny 28 -2 25 -4 86 86 WNW 10 17 30.18 1022 10 16.09344 0 0
8:55 am 08:55 Sunny 36 2 28 -2 75 75 WNW 13 20 30.12 1020 10 16.09344 0 0
9:15 am 09:15 Sunny 37 3 28 -2 70 70 WNW 10 17 30.15 1021 10 16.09344 0 0
9:35 am 09:35 Sunny 39 4 28 -2 65 65 WNW 8 13 30.15 1021 10 16.09344 0 0
9:55 am 09:55 Sunny 41 5 28 -2 61 61 WNW 9 15 30.12 1020 10 16.09344 0 0
10:15 am 10:15 Sunny 45 7 30 -1 57 57 W 7 11 30.12 1020 10 16.09344 0 0
10:35 am 10:35 Sunny 46 8 28 -2 50 50 W 9 15 30.09 1019 10 16.09344 0 0
10:55 am 10:55 Sunny 48 9 28 -2 46 46 WNW 12 19 30.09 1019 10 16.09344 0 0
11:15 am 11:15 Sunny 50 10 28 -2 43 43 WNW 9 15 30.09 1019 10 16.09344 0 0
11:35 am 11:35 Sunny 52 11 30 -1 44 44 W 8 13 30.06 1018 10 16.09344 0 0
11:55 am 11:55 Sunny 52 11 30 -1 44 44 W 7 11 30.03 1017 10 16.09344 0 0
12:15 pm 12:15 Sunny 54 12 30 -1 41 41 WNW 7 11 30.03 1017 10 16.09344 0 0
12:35 pm 12:35 Sunny 54 12 30 -1 41 41 W 10 17 30.03 1017 10 16.09344 0 0
12:55 pm 12:55 Sunny 54 12 30 -1 41 41 W 7 11 30.03 1017 10 16.09344 0 0
1:15 pm 13:15 Sunny 55 13 30 -1 38 38 WNW 8 13 30.03 1017 10 16.09344 0 0
1:35 pm 13:35 Sunny 54 12 30 -1 41 41 W 7 11 30.03 1017 10 16.09344 0 0
1:55 pm 13:55 Sunny 55 13 28 -2 36 36 W 10 17 30.03 1017 10 16.09344 0 0
2:15 pm 14:15 Sunny 55 13 30 -1 38 38 W 5 7 30 1016 10 16.09344 0 0
2:35 pm 14:35 Sunny 55 13 28 -2 36 36 WNW 6 9 30 1016 10 16.09344 0 0
2:55 pm 14:55 Sunny 57 14 28 -2 33 33 WNW 3 6 29.97 1015 10 16.09344 0 0
3:15 pm 15:15 Sunny 57 14 28 -2 33 33 NW 5 7 29.97 1015 10 16.09344 0 0
3:35 pm 15:35 Sunny 57 14 27 -3 31 31 W 3 6 29.94 1014 10 16.09344 0 0
3:55 pm 15:55 Sunny 55 13 27 -3 33 33 Calm 29.94 1014 10 16.09344 0 0
4:15 pm 16:15 Sunny 54 12 30 -1 41 41 S 3 6 29.97 1015 10 16.09344 0 0
4:35 pm 16:35 Sunny 50 10 30 -1 47 47 SSW 7 11 29.97 1015 10 16.09344 0 0
4:55 pm 16:55 Sunny 48 9 30 -1 50 50 SSW 6 9 30 1016 10 16.09344 0 0
5:15 pm 17:15 Clear 46 8 30 -1 53 53 SSW 9 15 30 1016 10 16.09344 0 0
5:35 pm 17:35 Clear 46 8 30 -1 53 53 SW 9 15 30 1016 10 16.09344 0 0
5:55 pm 17:55 Clear 46 8 30 -1 53 53 SSW 9 15 30 1016 10 16.09344 0 0
6:15 pm 18:15 Clear 45 7 30 -1 57 57 SSW 9 15 29.97 1015 10 16.09344 0 0
6:35 pm 18:35 Clear 45 7 30 -1 57 57 SW 10 17 29.97 1015 10 16.09344 0 0
6:55 pm 18:55 Clear 45 7 30 -1 57 57 SSW 10 17 29.97 1015 10 16.09344 0 0
7:15 pm 19:15 Clear 45 7 30 -1 57 57 SSW 10 17 29.97 1015 10 16.09344 0 0
7:35 pm 19:35 Clear 46 8 28 -2 50 50 SSW 12 19 29.97 1015 10 16.09344 0 0
7:55 pm 19:55 Clear 45 7 28 -2 53 53 SSW 10 17 29.97 1015 10 16.09344 0 0
8:15 pm 20:15 Clear 45 7 28 -2 53 53 SW 8 13 29.94 1014 10 16.09344 0 0
8:35 pm 20:35 Clear 45 7 28 -2 53 53 SW 8 13 29.94 1014 10 16.09344 0 0
8:55 pm 20:55 Clear 45 7 28 -2 53 53 SW 12 19 29.94 1014 10 16.09344 0 0
9:15 pm 21:15 Clear 43 6 28 -2 57 57 SSW 8 13 29.94 1014 10 16.09344 0 0
9:35 pm 21:35 Clear 41 5 28 -2 61 61 SSW 8 13 29.97 1015 10 16.09344 0 0
9:55 pm 21:55 Clear 41 5 28 -2 61 61 SW 7 11 29.94 1014 10 16.09344 0 0
10:15 pm 22:15 Clear 41 5 28 -2 61 61 WSW 6 9 29.94 1014 10 16.09344 0 0
10:35 pm 22:35 Clear 43 6 27 -3 53 53 WSW 5 7 29.91 1013 10 16.09344 0 0
10:55 pm 22:55 Clear 45 7 28 -2 53 53 WSW 12 19 29.88 1012 10 16.09344 0 0
11:15 pm 23:15 Clear 46 8 27 -3 46 46 SW 16 26 29.88 1012 10 16.09344 0 0
11:35 pm 23:35 Clear 50 10 27 -3 40 40 SW 10 17 29.85 1011 10 16.09344 0 0
11:55 pm 23:55 Clear 48 9 27 -3 43 43 SW 12 19 29.83 1010 10 16.09344 0 0

Powered by AerisWeather